Location: Boncourt
(49.6160°N, 3.9448°E)
Time: 09:04:00
(UTC+00:00)

NOSS 8 (A) - Pass Details

Date: 09 February 2023
Orbit: 353 x 1707 km, 63.3° (Epoch: 10 March)

Event Time Altitude Azimuth Distance (km) Brightness Sun altitude
Rises 18:27:37 0° 219° (SW) 2,874 9.2 -15.7°
Reaches altitude 10° 18:30:09 10° 218° (SW) 1,786 8.0 -16.2°
Maximum altitude 18:33:59 82° 134° (SE) 449 4.2 -16.8°
Enters shadow 18:35:00 41° 49° (NE) 625 4.7 -16.9°
